Theta_e
309 309 309 309 309 309 309 309 310 310 309 309 309 309 308 308 308 308 308 308 308 309 309 310 310 311 311 311 311 311 311 312 313 314 317 317 314 314 314 313 313 313 314 314 314 315 315 316 316 315 317 317 318 319 318 316 314 320 326 323 320 321 318 318 320 319 320 319 318 317 318 318 317 317 317 316 316 316 317 316 315 315 314 314 313 313 313 314
307 307 308 308 308 308 308 308 308 308 307 308 307 308 307 308 308 308 308 308 309 309 310 310 310 311 311 311 311 311 312 311 314 318 317 315 314 314 313 313 314 314 314 314 315 315 316 316 316 315 316 317 317 318 320 319 316 321 325 321 320 320 318 318 319 319 319 319 318 318 317 317 317 317 317 316 317 317 317 316 315 315 315 315 314 313 313 313
308 308 308 308 307 308 307 308 307 307 307 307 307 308 308 308 308 308 309 309 309 310 310 310 310 310 311 311 311 311 312 312 316 319 315 313 314 314 313 314 314 314 314 314 314 315 315 315 315 315 315 316 317 317 319 319 318 318 320 321 320 318 317 317 318 318 318 318 318 318 317 316 316 317 316 316 317 317 316 315 315 316 315 315 314 313 313 313
309 308 308 308 308 308 308 308 308 308 308 308 308 308 308 308 309 309 309 309 310 310 310 310 310 310 311 311 311 311 311 313 318 318 314 313 314 313 314 314 314 314 314 314 314 314 315 315 315 316 316 316 316 317 317 318 318 317 318 320 318 316 317 316 318 318 317 317 317 317 316 316 317 316 316 316 316 317 315 314 314 315 314 314 314 313 312 312
311 310 310 309 309 308 308 308 308 308 308 308 309 308 309 309 309 309 309 309 309 310 310 310 310 311 311 311 311 311 312 317 318 315 313 313 314 314 314 314 313 314 313 314 315 315 316 316 316 316 316 316 317 317 317 317 317 317 316 318 317 315 317 317 317 317 316 316 316 317 316 316 317 316 316 316 317 317 315 313 313 313 313 312 313 312 312 312
311 311 311 311 311 310 309 309 308 309 309 309 309 309 309 309 309 309 309 310 309 310 310 310 310 311 311 311 311 311 314 318 316 314 314 313 313 313 313 313 313 313 313 314 315 316 316 316 316 316 316 316 317 317 317 317 316 317 318 317 317 317 317 317 317 316 316 316 316 316 316 316 316 316 316 316 316 316 315 313 312 312 311 311 311 312 312 312
310 310 311 311 311 311 311 310 310 309 309 309 309 309 309 309 309 309 309 310 309 310 310 310 310 310 311 310 311 314 316 316 315 314 314 313 313 313 313 313 313 313 313 315 316 317 317 316 316 316 317 317 317 317 317 317 317 318 318 317 317 317 317 317 317 316 315 316 316 316 316 316 316 316 316 316 315 315 314 313 312 312 311 311 311 311 312 312
309 309 309 310 310 311 311 311 311 310 310 309 309 309 309 309 309 309 310 309 310 310 310 310 310 310 311 310 313 317 317 317 315 314 313 313 313 313 313 313 313 314 314 315 316 317 317 316 316 316 317 317 317 317 317 317 318 319 318 318 317 317 317 317 317 316 315 315 316 316 315 315 316 316 316 315 314 313 313 312 311 311 311 311 311 311 312 312
308 308 308 309 309 309 310 311 311 311 311 310 310 310 310 309 309 309 310 310 310 310 310 310 310 310 310 310 314 315 317 318 316 313 313 313 313 314 314 315 316 316 316 317 317 317 316 316 317 316 316 317 317 317 317 318 318 318 317 317 317 317 317 317 316 316 316 315 316 316 315 316 316 316 315 314 314 313 312 311 311 311 311 311 311 311 312 312
308 308 308 308 308 308 309 309 310 310 311 311 310 310 310 310 310 310 310 310 310 310 310 310 310 311 309 312 316 315 317 318 315 314 314 314 315 315 316 317 318 318 317 317 317 317 317 317 317 316 315 316 317 317 317 318 317 316 317 317 317 317 317 317 317 316 317 316 316 315 316 316 315 316 315 313 313 312 311 310 311 312 311 311 311 311 312 312
308 308 308 308 308 308 308 308 308 309 310 310 311 311 310 310 310 310 310 310 310 310 310 310 310 310 309 312 316 317 319 318 315 315 315 314 315 316 317 317 318 319 318 318 318 317 317 316 315 315 315 317 317 317 317 316 317 316 316 316 317 317 317 317 317 317 317 316 316 315 315 316 314 315 315 313 312 311 311 311 311 312 311 311 311 311 311 312
308 308 308 308 308 307 307 307 307 308 308 309 310 310 310 310 310 310 310 309 310 309 309 309 309 310 310 312 314 316 318 318 315 315 314 314 314 315 316 317 318 319 319 318 318 318 317 316 315 315 316 317 317 317 317 316 316 316 316 317 318 318 318 318 317 317 317 316 316 315 316 316 314 314 314 312 312 311 312 312 311 312 311 311 311 311 311 311
308 308 308 308 308 307 307 307 307 307 307 308 308 309 309 309 309 309 309 309 309 309 309 309 309 311 311 313 314 314 315 315 314 314 314 314 315 315 316 317 318 319 319 318 318 318 318 317 315 316 316 316 317 317 317 316 316 316 317 317 318 319 319 319 318 317 316 316 315 315 317 319 315 313 312 312 312 312 313 312 311 311 311 311 310 311 311 311
308 307 307 307 307 307 307 307 307 307 307 307 307 308 307 308 308 308 308 308 308 309 309 310 311 312 313 314 315 315 315 315 315 315 315 315 316 316 316 317 318 318 318 318 318 317 317 316 315 315 316 316 316 316 316 317 316 316 318 318 319 320 319 317 316 316 315 315 314 315 318 319 316 313 312 312 312 312 313 313 312 312 311 311 310 311 311 311
307 307 307 307 307 307 307 307 307 308 307 307 307 307 307 307 307 307 307 307 308 310 311 312 313 314 316 316 316 316 315 315 315 314 315 316 316 317 317 317 317 318 318 318 317 317 316 316 315 316 316 316 316 317 318 319 318 317 319 321 321 321 319 317 316 316 315 315 314 315 317 318 316 313 312 312 312 313 314 313 313 312 311 311 310 310 311 310
307 307 307 307 307 307 307 307 308 308 308 307 307 307 307 307 307 307 308 309 311 312 314 314 314 315 317 318 317 317 316 315 316 315 316 316 317 318 318 318 317 317 317 317 317 316 315 315 315 317 316 316 317 318 319 321 321 320 320 322 322 322 320 318 316 316 316 315 313 315 317 318 316 314 312 312 312 313 314 314 313 312 311 311 310 310 310 310
307 307 307 307 307 307 307 308 308 308 308 308 308 307 307 307 308 309 310 312 314 315 315 316 316 316 316 317 316 317 317 316 317 317 317 317 317 317 318 317 316 317 316 316 316 315 315 315 316 317 317 317 317 319 321 322 323 323 322 321 322 322 321 319 317 316 316 315 315 315 315 317 317 314 313 312 312 313 314 314 313 312 311 310 310 310 310 310
307 307 307 307 307 307 308 308 308 308 308 308 307 308 309 310 311 312 314 315 315 316 315 315 317 317 317 317 317 317 317 317 317 317 318 318 317 317 317 316 316 316 316 315 316 316 316 316 316 318 318 318 318 319 322 324 323 323 323 321 322 322 321 320 318 316 316 316 316 316 316 317 317 314 312 313 312 313 313 314 314 312 311 310 310 310 309 310
307 307 307 308 308 308 308 308 308 308 308 308 308 309 310 312 314 314 315 315 316 316 316 316 316 316 317 318 318 317 317 317 317 317 318 318 317 316 316 316 316 316 316 317 317 316 316 317 318 320 320 319 318 319 321 322 321 321 322 321 321 320 320 320 318 316 316 316 316 317 317 318 318 315 313 312 313 313 314 314 313 312 311 310 310 309 309 309
308 308 308 308 308 308 308 308 308 307 308 309 310 311 313 316 317 317 316 315 315 315 316 318 317 316 317 319 318 318 318 317 317 317 317 318 317 316 316 316 316 316 317 319 319 316 316 320 321 321 320 319 320 320 319 320 320 320 321 321 321 320 320 320 318 315 316 317 318 318 319 319 319 318 314 312 313 313 314 314 312 312 311 310 310 309 309 308
308 307 308 308 308 308 308 308 308 308 309 311 311 313 319 320 319 319 318 317 317 315 316 318 318 318 318 319 318 318 318 317 317 317 317 317 316 316 316 315 316 317 317 319 319 316 317 321 321 320 319 319 320 320 320 320 320 320 320 320 321 320 320 320 318 315 315 317 319 318 319 318 319 319 316 312 312 312 313 313 312 311 310 310 310 309 309 308
309 308 308 308 308 308 308 308 309 309 310 312 312 314 320 321 318 318 317 317 319 318 317 318 318 318 319 319 318 318 318 317 316 317 317 316 316 316 316 316 317 317 318 318 319 319 320 320 319 319 319 319 320 320 320 320 320 320 321 320 321 320 320 320 317 315 315 317 318 318 318 318 319 319 317 313 312 313 313 313 312 311 310 310 309 309 308 308
312 309 308 308 308 308 309 311 313 313 311 312 313 313 316 318 318 317 317 317 318 319 319 319 318 318 319 318 318 317 318 318 317 317 317 316 316 316 316 316 316 318 318 318 320 321 321 320 319 319 319 319 320 319 319 319 319 321 320 320 321 320 321 321 317 315 315 315 318 319 318 318 318 319 318 314 313 313 313 313 312 312 310 310 309 309 308 307
315 312 309 308 309 309 310 314 316 315 314 313 313 314 315 317 317 317 317 318 319 319 319 319 319 319 319 318 318 318 318 318 318 318 317 316 316 316 316 316 317 318 318 318 319 320 321 320 319 319 319 320 320 319 320 319 319 321 321 320 321 321 321 321 319 317 316 316 317 318 319 320 319 319 319 315 312 312 311 311 311 310 310 309 309 308 308 307
316 314 313 310 310 311 312 315 316 315 315 315 314 314 315 316 317 317 317 319 320 320 320 320 320 320 320 318 318 318 317 317 318 318 318 317 317 317 317 317 317 317 318 319 319 319 319 319 320 321 320 321 321 319 321 321 319 321 322 321 320 320 320 321 323 321 321 322 318 317 324 327 322 321 321 315 312 312 310 309 309 309 308 308 308 308 307 307
317 316 315 313 313 313 314 317 317 316 316 317 316 316 316 316 317 317 318 319 320 321 321 321 321 320 320 319 318 318 317 317 317 318 318 317 317 317 317 318 317 317 318 319 319 319 319 318 320 322 322 323 322 321 322 322 319 320 324 324 320 320 321 322 323 323 325 325 319 318 324 327 322 322 322 316 313 313 310 308 308 308 308 307 307 307 306 307
319 317 316 315 315 314 316 317 317 317 317 317 317 316 316 317 317 317 319 321 321 322 322 320 320 320 319 318 318 318 319 318 317 318 318 317 317 317 317 317 317 317 317 319 321 320 318 318 320 322 323 324 322 320 321 321 320 322 325 325 322 320 322 323 322 324 325 323 320 319 322 323 322 322 321 317 314 313 310 308 308 308 307 306 306 306 306 306
320 318 317 316 316 315 315 317 317 317 317 317 317 316 316 317 317 317 320 323 323 322 321 319 318 319 318 317 318 317 318 318 318 318 317 317 317 316 316 317 317 317 316 319 322 321 319 319 322 323 322 323 320 321 324 321 320 323 324 323 322 322 322 322 322 324 323 323 323 321 321 324 323 322 320 318 316 316 313 310 308 308 307 306 306 306 305 305
320 320 318 317 316 316 315 316 317 317 316 317 317 316 316 316 316 319 321 323 324 322 320 318 318 318 317 317 317 317 316 316 317 316 316 316 316 315 315 316 316 317 317 317 320 322 319 317 318 321 321 320 320 322 326 324 321 321 322 322 322 322 321 321 322 323 322 322 323 322 322 324 325 323 321 319 319 319 316 312 309 308 307 306 305 305 305 304
320 321 319 317 316 316 315 317 317 318 317 316 316 315 315 316 317 321 323 323 324 322 317 317 318 318 317 316 316 317 316 314 313 314 315 315 315 314 314 315 315 317 319 319 319 319 316 314 315 318 319 317 317 317 318 322 320 318 321 322 321 320 320 320 320 321 322 322 322 322 322 323 325 326 323 320 320 319 319 314 310 308 307 306 305 305 304 304
320 321 320 318 317 316 316 317 317 318 317 315 315 315 316 318 319 322 323 321 321 321 316 316 318 317 317 317 318 317 316 314 312 313 314 314 314 314 315 316 316 318 320 321 320 318 315 316 317 316 315 315 317 317 315 316 317 318 321 322 321 321 319 320 320 320 322 324 323 322 322 322 324 326 322 319 318 318 318 314 310 308 306 305 305 304 304 303
320 321 321 319 318 317 317 317 317 318 317 314 314 315 317 321 321 323 324 321 320 322 319 318 318 317 317 319 319 318 316 315 313 314 315 314 315 314 315 317 317 319 322 320 320 321 318 319 318 317 314 315 319 320 316 315 317 320 322 322 324 324 322 322 323 321 322 323 319 319 321 323 323 322 320 319 317 316 316 313 311 308 306 306 305 304 303 303
321 321 321 321 319 317 317 317 317 317 315 313 314 316 319 321 321 323 324 323 322 322 320 319 318 318 318 320 321 318 317 317 314 314 315 315 316 315 315 317 317 320 323 320 320 323 322 320 319 318 316 315 318 320 318 318 318 319 320 322 325 325 324 326 325 323 324 322 318 317 319 323 324 321 320 318 314 312 312 312 311 308 306 305 304 303 303 303
323 322 321 321 320 319 317 317 317 316 315 314 315 317 319 320 322 322 321 323 322 320 319 320 319 319 319 321 321 318 318 318 315 315 317 317 317 317 317 317 317 319 321 321 321 322 324 325 321 318 317 316 317 318 320 319 317 317 319 320 323 325 327 329 327 326 326 322 318 318 320 325 325 320 315 312 309 308 310 311 310 308 306 305 304 303 303 303
323 323 322 321 321 319 318 318 318 317 315 315 317 318 319 319 321 322 320 321 320 318 318 319 320 321 321 322 321 318 320 320 316 316 318 318 318 318 318 317 316 318 320 322 323 322 324 326 322 317 316 316 316 318 318 319 318 317 319 320 321 323 325 327 324 321 322 321 319 319 322 323 320 315 310 307 307 307 308 309 308 307 306 304 304 303 303 303
322 322 321 320 319 319 318 318 319 317 315 316 317 318 318 319 320 321 319 319 319 319 319 320 322 322 322 323 321 319 320 320 317 318 319 318 319 319 320 319 317 317 320 321 324 324 324 325 321 316 315 314 314 317 318 319 320 319 319 321 321 322 322 323 321 318 318 322 321 320 322 320 317 316 311 308 308 307 307 308 307 305 305 304 304 303 303 304
321 321 320 320 319 319 319 318 319 318 316 316 318 318 318 318 319 319 318 318 319 319 320 321 322 323 324 324 322 320 321 320 318 318 319 319 320 319 320 320 318 317 319 320 323 326 326 324 319 317 318 314 311 314 317 316 317 320 321 320 320 322 321 320 322 322 322 324 323 321 321 321 321 320 313 309 310 308 307 308 306 305 305 304 303 303 303 304
320 320 320 320 320 319 319 318 319 318 316 316 317 317 317 317 317 318 319 319 319 320 320 321 322 322 323 324 323 320 320 321 319 318 320 320 320 321 319 320 320 317 318 319 322 325 325 324 319 316 317 314 310 314 318 315 313 316 318 318 320 323 322 320 322 323 324 324 324 323 322 320 321 321 316 312 311 309 307 308 307 305 304 304 304 303 303 303
320 319 319 320 320 319 319 319 318 317 316 316 315 316 317 317 315 317 320 320 320 321 320 320 321 321 322 323 323 321 320 321 319 318 321 321 320 321 319 320 321 319 318 318 321 323 323 325 322 315 314 314 312 315 319 318 314 313 314 317 320 321 321 322 321 322 324 324 324 325 324 324 322 320 321 317 312 309 308 307 307 305 304 304 304 303 303 304
319 318 319 319 319 319 319 319 317 316 316 315 314 314 316 317 316 315 318 320 321 321 321 321 321 321 321 321 322 322 320 320 320 319 320 320 320 321 319 319 321 320 318 318 320 321 322 324 324 316 313 314 315 316 317 318 316 314 315 318 319 318 319 321 321 321 322 323 324 324 324 326 321 316 319 318 313 310 309 308 307 306 305 305 304 304 304 304
318 318 319 319 319 319 318 317 316 316 316 315 314 314 315 317 317 316 318 320 321 321 321 322 323 323 323 322 322 322 320 320 320 319 320 320 320 322 321 319 320 320 320 320 320 321 321 322 322 318 313 314 316 316 315 317 317 316 316 317 317 317 318 320 321 321 320 321 324 323 325 328 319 312 314 317 315 312 309 308 307 306 305 305 305 304 305 305
319 319 319 318 317 318 317 315 315 316 315 313 313 314 314 316 317 317 318 319 320 320 319 320 322 323 325 324 324 324 321 320 321 320 320 320 320 322 320 318 319 319 319 320 320 320 321 322 321 319 315 314 315 315 314 315 317 318 316 316 318 318 317 320 322 322 321 321 322 322 325 326 316 310 311 312 312 311 309 308 307 306 306 305 305 305 305 305
318 318 318 317 317 318 317 316 316 315 313 311 312 313 314 315 317 317 318 319 319 320 319 320 320 321 322 323 324 324 322 321 322 321 320 321 321 319 315 315 318 319 318 320 319 318 319 321 321 321 318 315 315 315 315 313 315 317 317 317 318 317 317 320 321 320 320 321 321 321 323 321 314 310 309 307 307 309 309 309 308 307 306 306 306 305 305 305
317 317 318 317 317 318 317 316 315 314 311 311 312 313 314 315 316 317 318 319 319 319 319 319 319 320 321 322 322 323 322 321 323 321 320 323 321 314 311 313 316 319 319 319 319 318 319 320 321 322 322 320 317 317 317 315 313 315 316 316 317 317 319 319 319 319 320 321 322 321 322 320 315 311 308 306 306 308 308 309 309 308 307 306 306 306 305 305
316 316 316 317 317 317 317 317 315 312 311 311 312 313 314 314 315 315 317 318 319 319 318 319 319 319 320 321 320 320 321 320 322 321 319 322 319 311 310 311 313 317 316 315 316 319 320 321 321 321 323 323 322 321 319 317 314 313 315 316 316 317 319 318 318 319 319 320 321 320 321 320 314 310 310 309 308 307 307 308 309 308 308 307 306 306 306 305
314 316 316 315 316 316 316 316 315 313 312 311 312 313 313 314 314 314 315 317 318 318 318 320 320 319 320 321 320 320 320 319 320 320 319 322 320 312 309 309 310 313 313 312 314 317 318 319 319 320 322 323 323 323 321 319 316 315 315 315 316 317 318 318 317 318 320 321 321 320 321 320 314 312 312 311 310 309 307 306 307 308 308 307 307 306 306 305
312 315 316 316 316 315 315 315 315 314 313 312 313 313 313 313 314 315 315 315 316 318 318 319 320 320 320 320 319 320 320 319 319 319 319 320 318 311 308 308 309 311 310 309 313 316 318 318 318 319 321 321 320 319 319 319 317 316 315 315 315 316 317 318 318 318 321 322 320 320 322 323 318 315 314 313 312 311 307 305 306 308 308 308 307 306 305 305
311 313 314 315 316 315 314 315 315 315 314 313 313 314 314 313 314 315 315 315 315 317 318 318 319 319 319 319 319 320 320 320 320 318 318 319 316 313 311 310 310 310 310 310 311 315 318 318 317 318 319 319 319 317 317 319 319 317 316 315 314 315 316 317 317 318 320 320 320 321 323 322 319 316 315 314 311 310 308 306 306 307 307 307 306 306 305 305
309 311 311 312 314 314 313 313 314 315 316 314 314 315 315 315 314 315 316 316 316 316 317 318 318 318 318 319 319 320 319 320 320 318 318 318 316 314 314 314 311 308 310 312 312 312 315 317 316 318 318 318 319 317 316 317 317 318 318 316 315 315 315 316 316 316 318 318 319 321 321 320 319 316 315 313 310 309 309 308 307 307 306 306 306 306 306 305
308 309 310 310 310 309 310 312 313 314 315 315 315 315 315 316 315 315 315 317 317 316 317 317 317 317 318 318 319 320 319 319 320 319 317 317 315 314 315 315 313 309 309 313 313 312 314 316 316 317 317 317 317 316 315 315 315 317 318 317 316 315 315 315 315 315 316 317 317 317 318 319 318 315 313 312 310 310 309 308 307 307 307 306 306 306 306 306
307 308 309 308 309 309 309 311 312 313 314 313 314 314 315 316 316 316 316 316 316 317 317 317 317 317 317 318 318 319 318 318 319 317 316 316 315 315 314 314 313 311 310 311 313 313 313 314 315 316 317 317 316 314 314 315 315 315 316 317 316 316 315 315 314 314 315 315 316 315 316 317 317 315 312 309 309 309 307 307 307 307 307 307 306 307 307 306
306 307 307 306 309 310 310 310 311 312 313 312 312 312 313 314 315 316 317 315 313 314 315 315 316 317 317 317 317 317 317 317 317 315 314 314 314 313 312 312 312 313 311 311 313 313 313 313 314 315 317 317 313 312 313 314 315 317 317 316 315 314 315 315 315 315 314 314 315 315 315 317 317 316 315 312 310 309 307 308 308 307 307 308 308 308 308 307
Wind_Speed
9 9 9 8 8 8 8 8 8 8 7 7 7 7 7 7 7 7 6 6 6 5 5 4 2 1 1 2 3 4 3 4 4 3 2 3 4 4 3 3 4 4 5 5 5 7 7 5 4 4 4 3 3 4 3 4 4 2 1 2 3 1 2 1 2 4 5 5 5 7 2 1 4 5 2 1 3 5 5 8 7 2 2 1 0 3 5 6
9 9 9 8 8 8 8 8 7 7 7 7 7 7 7 7 7 7 6 6 6 5 4 3 2 1 1 2 3 4 3 3 2 0 3 3 3 3 5 6 7 6 7 8 8 6 5 3 3 4 4 3 1 2 1 3 5 2 1 2 2 2 2 4 6 6 3 6 6 6 4 1 2 3 2 1 4 7 5 9 9 6 6 0 1 3 5 4
8 8 8 8 8 8 8 8 7 7 7 7 7 7 7 7 7 6 6 6 6 5 4 3 1 2 2 3 4 3 3 4 1 2 4 1 4 6 8 8 7 5 6 8 9 7 4 3 3 4 5 3 2 1 1 2 4 1 1 2 2 3 4 5 8 8 7 6 4 5 4 0 1 2 2 2 4 3 2 7 8 10 7 1 3 4 4 1
7 7 7 7 7 8 8 8 8 7 7 7 7 7 7 6 7 6 6 6 5 4 3 3 2 3 3 4 4 4 6 5 2 4 2 3 6 8 8 6 4 2 4 8 9 8 6 3 4 4 6 3 3 1 1 2 3 2 2 1 3 2 3 5 7 8 6 5 4 4 2 2 2 3 0 2 4 1 5 6 6 8 5 3 4 4 2 1
8 7 7 7 7 7 8 8 8 8 7 7 7 7 7 7 7 7 6 6 5 5 4 4 3 3 3 4 4 5 6 3 3 4 3 5 6 6 5 2 0 2 6 9 9 8 6 3 5 4 5 2 4 2 1 4 3 3 1 4 4 3 1 5 6 5 3 3 2 1 1 2 1 1 4 4 3 1 4 2 2 2 4 5 5 4 3 2
8 8 8 8 8 8 8 8 8 8 8 8 8 8 7 7 7 7 7 7 6 6 5 4 4 3 3 3 4 5 4 2 2 4 4 4 4 3 2 2 4 5 8 9 8 7 6 4 5 5 5 2 2 2 4 3 3 2 1 4 5 3 2 5 3 2 2 1 1 2 1 1 2 5 6 4 2 4 5 3 2 2 2 4 5 6 5 2
8 8 8 8 9 9 9 9 9 9 9 9 9 8 8 8 8 8 7 7 7 6 5 5 4 3 3 3 3 3 2 1 2 4 3 3 3 3 4 6 8 9 9 6 4 6 6 5 6 5 5 3 1 3 4 1 2 1 1 4 5 3 2 4 3 3 2 2 3 3 2 3 4 5 4 4 5 6 6 4 3 1 3 6 6 6 4 2
9 8 8 8 9 10 10 10 10 10 10 10 10 10 10 9 9 9 8 8 7 6 5 5 4 3 4 3 3 4 4 5 4 3 4 5 5 6 8 9 9 9 7 3 1 3 4 5 6 4 4 2 2 1 3 2 3 2 1 4 3 1 2 2 3 4 4 4 5 5 5 7 9 6 3 6 8 8 6 4 3 4 5 6 5 4 2 2
10 9 9 9 10 11 11 12 12 12 12 12 12 11 11 11 10 9 9 8 7 6 5 5 4 4 4 2 1 4 3 6 5 3 4 5 6 6 8 8 7 6 4 3 1 0 2 4 4 4 4 4 4 2 4 2 1 2 4 4 2 2 4 5 6 7 7 7 7 5 7 11 11 8 2 7 11 8 6 5 5 6 5 4 3 2 2 2
12 11 11 11 11 11 12 13 13 13 13 13 13 13 12 12 11 10 9 8 7 7 6 5 5 4 4 1 1 3 3 5 3 3 3 3 4 5 6 5 5 3 2 2 1 2 2 4 3 3 4 4 2 1 2 1 1 3 5 5 7 9 8 7 8 10 9 8 9 7 7 9 7 7 2 8 12 8 7 7 7 6 4 3 2 2 3 3
13 13 13 12 12 12 13 13 14 14 14 14 13 13 13 12 11 11 10 9 8 7 6 6 5 5 4 3 3 4 4 5 4 2 3 4 5 5 5 4 4 2 1 1 2 1 2 3 3 3 3 2 1 1 2 1 1 2 4 6 10 12 12 11 10 11 8 5 9 10 7 4 6 4 4 11 13 9 9 9 8 7 4 3 3 3 4 4
15 15 14 13 13 13 14 13 13 14 14 14 14 13 13 12 11 11 10 10 9 8 7 7 6 6 5 5 9 9 7 7 6 6 7 8 9 8 7 6 5 4 2 1 2 3 2 1 2 2 3 3 3 1 2 1 0 3 3 4 7 8 9 14 13 11 9 4 7 8 4 6 7 4 7 14 13 11 11 9 9 8 6 5 5 5 5 5
17 16 16 15 14 14 14 14 13 14 14 14 14 13 13 12 11 11 11 10 9 8 8 7 6 6 6 6 9 10 10 11 11 11 11 10 10 10 9 8 6 6 4 4 5 4 3 3 3 2 4 4 3 0 1 1 2 3 4 3 4 5 5 10 12 9 8 4 7 8 1 5 6 8 11 13 14 15 12 10 10 8 7 6 6 6 6 6
18 17 16 16 14 14 14 14 13 13 13 13 13 13 13 12 12 11 10 10 9 8 8 7 6 6 6 6 8 10 11 12 13 13 12 11 11 11 10 9 8 8 7 7 7 7 6 4 4 3 4 4 2 1 2 2 4 3 3 3 2 2 2 3 8 10 6 4 9 8 2 4 4 9 12 13 15 16 13 12 11 9 8 7 7 7 7 7
19 18 17 16 15 14 14 14 14 13 12 12 12 12 12 12 11 11 10 10 9 8 7 6 5 5 5 7 9 11 13 14 15 17 14 12 11 10 11 11 9 9 9 9 8 6 5 4 5 3 2 3 2 1 3 3 4 3 2 3 2 3 2 2 7 11 5 3 10 7 2 2 4 9 13 13 16 15 14 14 12 11 9 8 7 6 7 7
18 18 17 16 15 14 14 14 13 12 12 12 12 11 11 11 10 10 10 9 8 7 6 5 5 5 4 7 9 10 12 14 15 15 13 13 11 10 12 10 9 9 8 7 5 4 4 5 4 3 2 3 3 3 3 3 3 3 3 3 3 3 3 2 4 8 4 4 8 7 3 1 3 10 14 15 17 15 14 14 14 12 11 9 8 8 7 6
18 17 17 16 15 14 14 14 13 12 12 11 11 10 10 10 9 10 9 8 7 6 5 4 3 5 6 8 9 11 13 15 14 12 11 11 11 12 12 8 6 6 4 3 4 5 6 5 3 3 4 3 3 3 2 3 4 3 4 3 5 5 5 3 1 5 6 4 6 7 6 5 3 11 15 17 19 18 16 16 16 14 12 11 10 9 8 6
17 17 16 16 15 14 14 13 13 12 10 11 10 9 9 9 9 9 9 8 7 4 5 6 4 2 8 12 12 11 13 12 11 11 11 11 12 12 9 5 4 3 4 4 5 7 6 5 3 2 3 4 4 4 3 4 4 4 2 2 3 4 5 4 1 5 8 4 5 6 7 8 5 10 15 18 19 19 17 16 17 15 14 13 12 11 10 10
18 17 16 16 15 14 14 14 13 11 10 10 9 9 8 7 7 8 9 9 9 6 2 8 13 4 2 9 13 12 11 9 8 9 11 12 12 11 8 6 6 8 7 5 5 10 8 4 3 1 3 5 5 6 6 6 6 6 3 1 3 3 4 4 2 5 6 3 5 7 6 8 5 8 12 17 19 18 16 15 17 16 15 14 12 13 12 12
18 17 17 16 16 15 14 14 13 11 10 10 9 8 6 5 4 5 9 14 16 14 8 7 15 12 3 4 10 10 9 8 7 8 11 12 11 11 9 7 7 8 6 4 5 8 9 4 4 5 6 7 7 9 10 8 8 6 3 2 5 4 5 4 1 3 2 1 5 6 6 8 7 5 12 19 18 15 15 14 17 17 16 15 14 14 13 12
18 18 17 17 16 15 14 14 12 11 10 10 11 8 4 4 4 2 5 12 17 20 19 14 13 14 11 8 10 10 8 7 8 9 9 10 11 10 10 10 7 5 7 7 5 3 5 5 6 9 9 9 7 7 8 8 8 6 3 4 5 3 6 5 2 3 2 1 4 6 7 8 9 7 9 18 14 14 19 18 18 18 16 16 15 14 14 13
18 18 17 17 17 15 14 13 11 11 11 11 12 11 8 7 7 5 3 7 12 15 18 20 18 18 16 14 13 11 9 7 9 12 11 13 14 10 11 11 5 4 7 8 4 3 4 6 8 11 9 8 7 3 3 4 5 5 3 3 4 3 5 4 2 3 2 1 3 5 7 7 8 8 6 17 16 16 21 19 18 19 17 16 16 16 15 13
17 18 17 17 17 15 13 10 9 11 11 11 12 14 12 7 7 7 4 6 11 16 19 21 23 24 20 18 17 16 15 10 10 15 16 17 17 14 13 10 6 6 6 8 6 4 5 6 9 14 11 8 7 3 1 3 2 3 3 3 4 4 4 3 1 3 3 3 4 4 6 7 7 10 8 13 14 10 11 12 13 16 16 16 16 16 16 14
16 17 18 17 17 15 12 9 11 14 13 12 13 15 14 9 6 5 4 5 9 13 21 23 24 27 25 21 22 21 20 16 14 16 20 21 19 14 12 11 8 7 7 9 10 9 8 5 7 12 11 8 7 5 4 3 3 5 6 6 5 4 6 6 2 3 3 3 4 3 6 7 7 12 9 4 6 7 9 11 11 13 13 14 16 16 14 14
15 16 17 18 17 15 12 12 16 16 14 14 13 14 15 10 5 2 2 5 6 7 13 18 20 24 25 23 21 20 18 19 19 17 21 25 21 12 9 12 10 6 8 11 9 10 11 7 6 8 8 7 7 6 6 6 4 5 7 9 9 7 7 6 1 2 1 3 2 1 3 4 4 9 8 4 4 5 9 10 11 13 13 15 18 17 15 15
14 16 17 19 17 14 14 15 18 17 16 17 14 11 12 10 7 3 1 3 5 3 5 12 14 14 18 21 21 16 9 13 19 18 18 23 23 15 7 9 8 6 7 8 7 5 4 5 7 7 7 7 6 6 6 7 4 4 4 5 9 8 5 4 3 2 1 3 1 3 2 5 4 4 4 5 6 6 8 9 12 16 16 17 19 18 19 19
16 16 16 18 18 18 19 18 17 17 16 15 12 10 13 14 10 5 3 3 6 5 8 10 11 10 13 19 26 17 2 6 14 16 20 22 23 18 9 7 7 5 3 2 5 3 4 6 5 5 6 6 6 5 6 8 5 4 4 3 3 3 2 1 2 2 3 3 2 4 4 5 7 6 6 7 7 7 7 8 10 16 19 19 19 19 21 21
19 18 16 17 19 21 22 17 14 16 16 11 8 12 16 16 12 7 3 4 3 6 7 7 9 11 12 19 28 17 6 13 12 10 24 27 22 16 10 9 7 6 6 5 5 1 3 7 7 8 7 5 5 3 5 9 5 2 1 4 5 3 1 0 1 3 3 3 4 5 4 4 7 5 6 8 7 8 10 10 10 15 19 19 19 19 20 21
21 20 19 19 19 20 21 17 14 15 14 9 7 15 21 19 12 6 1 4 2 4 4 7 9 11 15 19 23 15 10 8 2 8 22 23 20 11 5 9 7 5 9 11 8 1 1 3 4 7 7 5 3 3 1 6 5 3 3 6 6 3 3 1 2 2 1 4 5 5 5 4 6 4 6 6 6 9 9 8 10 16 20 20 20 20 19 20
23 22 21 21 21 22 22 22 19 15 13 10 10 19 25 18 9 4 3 4 2 1 5 8 8 12 18 15 11 10 8 2 5 11 15 12 14 8 2 6 6 3 4 8 8 2 3 1 1 2 2 3 6 5 6 3 7 8 5 5 4 2 3 2 1 2 0 6 6 8 9 6 5 3 5 5 4 6 6 6 8 14 20 21 20 21 21 21
26 26 26 26 27 25 25 28 26 20 17 13 14 24 23 9 2 5 7 1 3 2 6 5 6 13 17 13 8 10 7 4 8 12 8 5 7 5 2 4 3 2 2 5 5 1 3 2 1 1 3 7 7 4 6 5 5 7 4 4 3 1 3 2 2 2 2 7 4 8 11 10 8 4 2 2 2 1 5 8 10 13 19 23 22 23 23 23
27 29 30 30 30 28 29 32 29 25 21 16 21 26 16 3 1 5 4 2 1 4 6 6 7 10 14 12 9 10 8 6 9 9 6 5 6 6 7 6 6 4 3 5 4 1 3 4 4 3 3 7 6 3 4 5 1 3 4 5 4 1 0 0 3 3 4 6 2 2 5 8 9 6 5 6 2 3 2 8 16 18 22 24 24 24 24 24
29 29 32 34 34 33 32 31 29 27 21 19 25 21 8 2 7 8 7 4 0 1 4 8 9 10 13 11 7 9 7 5 9 8 5 6 5 6 8 7 7 5 2 5 5 2 2 4 7 4 2 9 10 6 4 1 3 6 6 6 5 4 3 4 4 3 5 5 3 2 2 2 4 5 8 6 5 4 4 9 21 25 26 26 25 25 24 25
33 31 33 37 38 37 35 33 32 26 21 23 23 13 5 6 8 9 12 10 2 1 3 6 8 10 11 8 5 9 6 2 8 8 5 6 5 5 7 8 11 7 0 3 4 6 4 4 8 8 4 12 13 10 8 5 5 8 6 6 6 5 4 4 4 3 3 1 3 3 2 3 3 2 2 3 7 5 6 12 21 23 25 26 25 25 25 25
35 35 37 40 42 41 38 38 37 27 25 28 17 7 9 10 7 8 11 10 5 2 3 5 8 8 8 5 4 8 5 2 7 7 5 8 6 7 8 9 13 9 4 4 2 5 7 6 5 7 7 14 14 11 8 8 4 5 4 6 6 4 3 2 2 2 1 1 2 2 3 4 3 0 2 6 7 5 5 13 20 20 22 25 24 25 26 27
32 36 38 41 45 44 40 41 40 32 31 27 12 6 11 9 4 5 6 10 9 5 6 6 6 6 7 4 3 6 3 2 7 6 5 7 6 8 8 6 12 13 8 7 2 3 6 3 1 3 4 9 8 7 8 7 3 3 4 6 4 2 3 3 1 2 2 3 3 4 4 4 1 1 2 6 5 4 2 8 17 19 22 25 24 26 27 28
27 29 33 37 42 44 44 44 42 39 36 24 10 8 9 7 5 4 4 10 13 8 6 5 5 6 7 4 4 8 4 3 8 6 3 5 5 9 10 7 13 17 14 11 4 2 5 2 2 2 2 2 2 1 3 2 3 4 5 6 3 4 1 1 1 1 2 5 4 5 6 4 3 3 2 5 5 5 5 6 12 17 21 23 23 26 28 29
29 28 31 36 38 41 46 45 43 42 35 17 10 10 7 7 10 6 4 7 10 11 8 7 7 7 7 7 5 9 8 4 8 6 4 5 3 8 13 8 12 19 21 17 6 2 4 3 3 0 1 0 3 1 1 3 4 3 2 3 3 1 1 3 2 2 4 5 4 4 7 6 7 6 4 7 10 10 9 8 9 14 20 22 23 26 28 29
31 24 26 34 37 40 45 46 45 41 26 11 11 10 6 7 12 12 9 5 4 8 9 8 8 6 8 9 6 10 11 8 9 7 5 5 4 8 14 11 10 17 23 20 9 3 3 3 3 3 2 2 1 1 4 2 1 2 1 2 1 2 3 4 3 2 3 4 4 2 4 5 6 7 9 12 13 12 12 11 10 14 20 23 25 28 30 31
32 18 16 28 32 37 47 49 44 31 14 9 11 8 4 5 10 18 19 10 1 3 7 8 9 8 9 10 8 7 10 9 10 8 6 7 5 6 13 13 9 13 20 19 10 4 2 3 4 2 2 2 2 4 9 10 7 4 3 4 4 2 1 1 2 2 3 3 3 3 5 5 4 2 7 13 12 13 15 14 12 16 22 25 27 31 33 34
30 14 12 24 23 30 45 41 27 16 8 8 10 7 6 3 6 17 22 17 7 1 1 3 5 6 5 8 8 6 7 8 8 8 6 8 8 4 9 14 11 11 13 12 9 7 3 3 4 2 2 4 4 5 7 8 9 9 8 8 9 7 4 2 4 4 3 2 3 4 5 5 3 2 0 5 7 11 16 15 13 19 25 26 27 31 34 36
20 8 14 26 21 27 38 22 7 8 6 7 9 8 7 3 2 12 17 18 13 4 1 1 1 2 1 3 3 3 6 6 7 8 6 8 10 5 4 10 14 15 12 6 9 9 4 2 4 2 3 4 2 0 1 1 1 3 5 6 6 6 7 6 5 5 4 3 1 1 4 5 3 2 4 4 4 8 16 17 15 19 26 26 27 30 32 34
17 8 13 24 25 32 33 11 4 8 4 5 7 7 10 7 2 8 12 13 11 6 4 2 2 4 4 2 2 2 5 6 7 10 8 7 6 1 2 3 9 14 11 4 5 6 4 2 4 2 1 0 0 1 2 3 2 2 4 5 6 8 8 6 3 2 4 4 3 1 4 5 2 2 3 4 6 9 15 20 20 20 24 26 26 27 29 31
20 12 11 21 28 32 23 5 5 9 5 6 7 7 11 9 7 9 9 10 11 7 6 6 5 6 4 2 3 2 3 3 5 6 5 4 2 3 2 1 2 6 7 2 3 9 6 2 4 2 2 1 1 1 1 1 2 4 5 6 9 10 8 3 0 1 3 7 8 5 6 4 2 2 1 2 4 7 10 16 21 22 24 25 25 25 28 30
17 10 11 24 35 36 25 14 12 8 6 9 9 11 12 8 13 16 11 10 12 9 6 7 8 7 3 2 2 3 4 4 3 2 1 2 1 2 1 2 1 1 2 2 2 9 7 3 6 7 7 8 5 4 4 4 3 3 5 10 12 12 12 7 3 3 6 6 9 8 7 3 2 2 3 3 3 5 6 11 16 20 22 25 26 27 28 30
12 7 6 14 27 30 25 25 22 11 8 11 7 10 14 10 11 17 16 11 13 13 9 4 5 7 4 4 5 8 9 7 3 2 2 3 2 1 1 2 2 1 1 2 1 4 3 2 9 13 12 10 6 4 3 6 7 7 11 14 15 15 14 9 6 9 6 4 7 11 7 4 4 5 5 5 6 6 6 9 13 17 20 23 25 27 27 29
8 7 6 6 12 14 11 15 19 12 12 15 8 6 15 15 9 11 17 16 15 16 11 4 6 9 9 11 11 10 11 9 6 7 8 5 2 1 1 2 2 3 3 2 1 3 3 4 10 13 13 8 5 3 2 4 10 14 14 16 16 15 15 12 13 11 6 5 9 8 9 7 8 7 7 7 7 6 7 12 15 18 20 21 23 24 24 26
7 5 9 10 6 5 6 8 10 12 16 17 9 6 13 16 12 10 14 16 15 15 10 6 11 15 14 14 11 8 9 9 9 12 12 6 3 1 1 2 4 5 5 3 2 3 3 6 8 9 12 8 3 1 2 1 5 8 12 18 18 17 18 19 20 15 10 9 10 6 12 12 8 8 9 8 10 10 11 16 18 18 19 20 21 23 24 26
9 5 6 9 5 3 7 8 7 9 13 14 11 10 12 16 17 13 11 9 9 13 13 11 15 18 17 14 10 8 10 10 11 13 11 7 6 5 3 2 3 5 5 4 4 3 3 5 6 6 10 11 5 2 1 2 3 4 7 14 17 20 21 20 21 17 12 12 8 5 7 10 5 8 9 9 13 13 12 15 17 17 18 20 21 23 25 27
10 7 4 6 4 2 4 6 6 5 8 9 10 11 13 16 18 15 11 9 8 10 14 17 19 17 16 15 13 12 15 15 15 12 9 8 6 6 6 4 4 5 4 4 3 4 5 5 3 5 6 9 6 3 1 1 1 3 7 9 12 16 18 17 18 14 10 13 10 2 5 8 4 7 5 7 11 12 12 14 16 16 18 21 22 24 25 27
12 11 7 3 3 4 4 3 5 5 5 5 4 6 10 16 16 11 11 15 16 11 13 20 23 15 11 14 16 19 20 18 13 10 12 15 12 10 9 6 7 7 5 5 4 4 5 3 1 4 5 8 6 5 4 3 3 4 12 14 11 9 11 14 13 10 11 14 11 7 8 7 4 6 6 7 10 12 11 14 16 16 19 20 22 24 25 27
15 13 10 4 2 6 6 2 3 6 5 6 6 5 5 7 7 6 6 9 12 10 9 14 17 11 8 13 19 25 25 18 13 11 13 18 14 10 10 9 11 10 7 6 3 3 6 4 2 4 6 5 4 6 7 4 2 6 14 13 11 8 9 10 9 10 13 12 9 9 9 5 5 6 6 5 5 8 11 14 16 17 19 21 23 25 26 24
Wind_Direction
184 187 188 190 194 195 196 197 197 197 197 197 195 192 189 186 184 183 181 176 173 177 178 180 186 190 297 332 334 332 333 339 345 347 307 280 284 261 225 160 130 99 79 72 59 34 15 12 347 337 340 331 25 10 343 3 352 338 354 242 267 171 101 314 54 97 149 134 134 131 110 332 126 145 153 246 229 217 194 131 140 152 117 183 54 330 312 302
185 186 186 188 191 192 194 194 195 196 196 196 192 190 187 183 180 179 180 179 178 182 185 193 200 229 307 322 322 326 316 327 7 312 307 302 255 192 160 145 128 100 74 62 53 26 352 344 320 318 311 279 62 37 32 357 328 317 304 283 335 46 49 4 60 63 60 105 121 115 90 33 88 108 124 266 227 211 192 128 139 114 85 232 239 329 313 294
192 192 190 191 191 191 193 193 194 193 192 192 191 189 187 183 182 182 184 186 188 191 194 207 229 267 294 305 312 322 300 313 119 211 311 7 159 155 147 142 130 98 56 38 38 30 0 345 322 313 302 279 89 39 144 338 315 33 337 330 44 79 73 45 69 65 41 69 100 105 97 353 58 96 114 306 287 249 113 109 130 112 98 275 284 321 310 288
207 206 203 200 199 198 197 196 196 195 195 194 193 191 190 191 190 191 193 195 201 204 211 221 243 262 287 305 315 319 305 314 170 208 292 117 141 145 145 141 133 82 12 6 16 19 17 350 324 325 296 268 121 280 201 62 334 346 346 42 65 35 81 78 77 79 63 55 52 67 50 311 147 135 233 281 300 341 80 82 113 122 136 223 273 298 276 134
218 220 221 219 214 214 210 205 204 202 202 199 199 199 198 200 199 202 204 205 210 215 224 231 246 265 292 305 320 326 316 333 151 176 138 131 137 144 153 147 199 321 336 350 8 7 11 351 312 300 278 240 144 217 74 68 332 315 30 90 71 1 51 104 88 88 78 57 58 28 325 338 119 219 263 245 265 134 121 97 108 147 202 221 240 236 210 163
224 227 229 231 229 227 225 221 217 213 211 208 209 206 206 208 208 210 211 214 218 222 231 236 251 266 290 307 325 331 323 336 162 163 141 146 145 151 193 259 295 309 323 345 12 2 359 341 297 279 277 264 148 116 90 63 341 326 92 87 68 13 46 109 119 139 104 30 242 260 258 344 335 288 267 232 200 175 182 228 288 290 228 187 188 182 184 164
228 233 237 239 238 237 234 232 229 226 222 218 216 213 213 213 213 215 216 221 221 226 234 242 257 268 290 308 325 325 308 254 191 187 191 203 220 251 272 282 292 305 319 344 9 346 339 309 291 294 293 283 43 76 87 26 298 274 224 106 84 14 25 112 155 193 186 234 239 276 289 273 281 280 255 177 169 200 214 255 272 234 159 152 152 156 159 147
232 237 244 248 249 247 242 240 236 234 232 228 224 219 217 216 217 218 219 224 225 231 238 245 262 273 293 309 332 315 273 206 194 224 240 241 259 274 283 290 297 304 315 333 316 309 316 299 302 319 315 343 24 46 64 352 247 256 8 85 83 326 288 182 183 214 217 222 241 266 269 261 255 252 233 165 178 213 224 237 206 165 150 148 141 141 155 182
240 240 243 249 253 252 249 246 242 239 237 234 232 227 224 222 221 221 221 226 228 234 241 250 265 274 288 304 318 301 245 193 202 252 264 261 272 282 287 296 306 310 329 342 343 282 312 321 337 353 336 343 357 18 61 34 268 3 14 17 344 259 248 223 207 221 220 219 232 237 246 258 246 235 229 167 187 211 207 191 166 156 151 147 150 171 205 229
246 244 244 246 249 251 249 247 245 244 241 238 237 234 231 228 226 227 226 229 232 236 243 251 260 266 279 274 253 271 202 190 214 245 263 277 281 285 288 298 312 328 36 354 28 82 305 311 318 325 315 303 311 24 55 28 34 13 351 324 292 268 258 231 220 233 226 221 216 203 248 258 213 209 218 170 193 206 183 168 153 154 166 174 198 217 233 239
247 247 249 249 248 247 245 244 243 243 243 241 240 239 237 234 232 233 232 233 236 239 243 250 256 260 261 217 222 241 206 213 225 222 245 281 289 286 282 284 301 298 129 355 332 205 244 274 276 287 297 308 345 121 82 21 67 7 327 300 274 258 250 232 228 236 224 218 207 204 257 249 161 207 205 173 189 189 166 158 153 162 182 202 220 231 245 249
246 247 250 253 251 247 243 240 238 240 241 241 241 242 242 240 238 237 238 237 238 242 244 249 253 250 247 231 235 239 234 240 245 248 262 279 281 275 273 275 279 270 217 170 269 257 246 264 240 268 283 309 333 140 101 63 144 310 280 285 283 265 246 223 214 217 206 194 190 189 265 241 191 186 165 171 178 163 157 158 158 173 194 212 231 232 238 247
244 246 249 251 251 249 245 238 234 235 238 240 242 242 243 244 243 241 241 241 242 244 246 248 250 247 243 241 245 244 244 251 258 264 269 273 271 265 264 264 259 257 237 206 240 269 285 273 227 255 284 292 319 312 37 137 188 278 246 216 287 295 267 211 190 179 176 174 175 165 263 251 194 150 151 168 168 156 159 166 168 183 198 210 224 232 232 233
241 243 246 248 248 244 243 241 236 234 234 237 238 240 242 243 244 243 243 245 246 247 250 248 248 245 239 245 255 248 245 252 259 263 266 265 261 258 256 256 251 244 239 241 262 282 279 256 214 237 258 256 310 0 293 226 192 264 266 198 220 271 290 185 153 150 158 184 176 168 263 261 144 142 162 172 168 163 166 173 177 185 197 209 212 225 234 228
239 240 241 244 243 237 237 239 239 239 237 236 235 237 238 239 242 242 243 245 246 249 251 250 244 243 249 258 257 249 247 250 255 260 261 258 253 251 248 246 245 243 248 260 269 272 254 205 201 230 217 207 237 283 269 245 202 203 234 255 230 195 221 162 155 169 169 175 180 179 261 233 141 156 170 175 174 173 175 177 181 186 192 204 202 205 227 232
238 237 237 238 236 234 234 235 240 242 241 239 235 233 232 234 236 237 241 243 247 250 247 247 236 231 256 259 247 249 251 246 250 257 256 252 243 235 242 243 244 251 257 263 258 231 197 178 212 237 173 176 207 223 255 272 251 203 185 252 256 212 210 153 176 202 174 138 186 203 250 283 142 167 177 182 181 181 186 182 181 187 188 190 191 190 211 232
234 234 234 234 232 232 234 236 241 241 241 241 236 233 229 229 230 234 237 236 243 243 228 227 229 240 253 252 246 249 251 247 248 253 248 243 229 226 239 242 241 252 245 218 199 179 182 180 204 239 213 220 231 209 228 252 252 230 186 214 245 241 233 192 207 227 190 173 208 210 234 265 173 167 181 188 185 187 194 187 182 187 187 188 193 193 200 205
231 232 232 233 232 233 236 240 241 241 242 240 235 231 226 226 229 232 234 233 228 220 226 211 177 252 254 235 232 237 244 247 248 248 241 230 224 225 229 217 208 190 158 173 181 174 184 184 174 248 233 217 225 200 194 212 229 261 227 205 254 261 250 239 150 185 186 204 242 210 222 248 202 169 185 192 190 194 200 192 185 187 190 193 196 193 188 189
231 229 229 231 233 234 238 242 241 239 234 231 228 223 223 224 229 238 236 220 196 174 221 205 189 187 278 215 214 222 234 242 241 238 230 222 217 209 194 183 178 167 161 166 181 181 178 167 160 209 239 213 210 204 210 226 247 285 303 292 295 304 280 281 102 169 181 193 238 228 235 251 225 176 185 195 195 200 206 193 183 185 189 193 193 192 188 193
230 229 227 229 232 233 237 241 241 237 228 223 214 203 212 212 213 241 225 217 216 218 236 218 204 218 245 186 200 211 218 224 222 220 222 217 204 187 175 172 175 184 197 174 169 183 176 176 198 203 219 218 216 214 221 239 257 281 312 288 283 288 275 280 136 169 170 175 230 236 251 260 256 216 188 192 195 203 208 189 180 186 189 191 190 188 187 195
229 227 226 227 230 232 235 237 235 230 221 216 202 182 182 207 199 195 211 231 242 239 241 239 226 234 243 223 214 219 211 197 197 209 216 197 182 174 172 174 172 194 225 202 158 147 181 209 219 213 221 231 237 232 227 231 241 257 268 275 276 262 265 270 174 157 96 72 248 254 264 262 261 257 185 176 186 206 207 192 186 191 189 191 190 183 185 197
228 227 225 226 228 230 233 235 233 227 217 210 200 187 190 208 206 204 235 269 265 254 247 241 236 240 244 232 222 221 208 183 186 205 199 173 173 175 172 178 190 193 208 205 152 99 221 235 227 223 230 238 243 260 266 251 243 243 239 265 267 259 274 280 128 141 119 123 258 267 274 267 263 274 199 177 192 208 207 200 194 193 187 185 185 182 188 197
227 225 223 223 225 228 228 228 236 235 224 211 202 198 204 207 208 230 267 289 277 263 248 241 236 233 230 226 223 216 210 201 196 206 196 173 177 187 177 176 204 212 198 199 187 179 218 234 223 221 230 238 228 197 224 288 282 238 228 242 248 244 258 267 154 179 182 209 264 298 289 272 264 270 241 192 190 185 183 184 183 185 185 186 187 188 192 192
224 223 222 221 220 223 216 210 231 239 234 223 209 205 211 210 206 243 270 273 278 260 246 244 238 230 223 224 228 221 218 221 213 206 197 183 178 185 188 186 200 218 210 199 203 218 234 240 203 203 214 223 215 194 187 217 246 229 218 222 238 235 228 237 217 178 194 226 237 289 293 269 239 241 241 174 146 146 157 166 166 170 177 182 183 184 190 193
221 220 222 219 217 217 205 207 225 233 237 234 220 210 213 209 196 218 290 271 262 245 241 236 231 231 222 220 226 217 216 227 223 210 200 194 187 179 192 198 199 218 217 204 205 231 246 236 182 184 202 196 200 216 186 181 234 243 220 213 219 235 245 257 297 82 355 291 213 155 280 271 231 228 222 148 150 179 174 182 186 183 182 181 180 178 179 183
224 220 218 218 214 205 197 212 225 229 237 238 228 212 203 187 174 176 95 304 262 209 186 198 205 221 213 204 198 191 213 231 217 210 202 199 196 187 187 194 199 223 220 209 214 239 242 195 173 176 184 174 194 230 182 167 211 253 255 222 208 223 258 291 337 37 273 284 253 141 213 270 294 271 227 172 193 198 179 194 200 195 196 193 189 188 183 179
230 224 219 217 208 197 198 212 223 222 229 237 231 206 184 170 158 139 108 301 264 172 145 172 185 190 195 191 180 175 196 165 174 193 191 190 194 193 198 188 185 218 227 216 225 222 118 154 172 162 163 175 198 220 182 165 183 238 298 354 154 189 250 269 306 252 239 305 278 170 170 272 280 257 218 178 186 203 194 204 203 194 198 200 197 197 194 187
229 227 223 218 208 204 205 208 214 214 216 227 219 185 171 163 151 128 128 272 245 140 144 167 173 172 168 176 179 172 130 138 145 184 183 182 189 192 208 209 189 191 195 206 223 234 118 167 174 162 171 199 198 213 191 173 176 227 322 45 85 92 54 65 239 244 278 324 264 186 152 260 274 242 193 173 191 218 208 203 202 191 192 195 194 194 195 193
226 224 222 219 216 213 209 204 209 217 213 204 187 172 163 156 143 112 111 245 182 117 143 156 156 156 146 163 183 170 132 139 125 175 177 182 187 180 204 221 219 202 197 215 225 272 63 177 172 170 192 208 164 28 311 178 177 182 119 72 72 72 67 76 234 222 297 274 236 189 162 219 273 249 172 174 216 230 216 197 190 185 184 188 187 185 186 187
223 225 220 215 215 212 205 206 214 221 205 184 173 164 158 152 136 127 193 217 245 86 120 143 150 154 151 156 185 173 145 109 84 140 165 181 184 178 159 199 234 263 213 230 236 197 98 99 316 200 186 147 120 54 16 84 137 145 127 85 81 70 70 62 241 123 319 262 220 186 187 200 270 259 171 187 238 221 191 161 166 175 176 180 182 180 180 179
220 223 220 215 213 210 205 209 212 207 190 176 163 157 154 145 112 187 197 224 328 126 117 136 148 153 163 161 169 181 168 125 128 143 155 165 178 188 162 165 208 276 284 263 251 174 126 131 7 151 120 109 108 69 21 36 119 136 123 112 105 37 47 38 250 150 218 255 214 183 196 202 232 268 174 196 298 119 146 153 164 168 171 175 178 179 179 178
223 221 223 223 219 213 212 214 208 196 190 181 166 160 152 130 242 220 211 56 8 182 142 155 165 161 176 176 172 179 169 148 159 163 159 161 177 192 198 188 167 176 239 234 220 204 215 201 151 131 160 157 136 93 38 5 340 156 132 130 128 162 322 266 208 181 225 249 268 203 208 215 232 255 235 210 158 67 85 160 169 166 167 172 173 176 180 181
227 222 225 227 223 217 215 218 211 199 199 188 172 166 148 165 206 213 208 178 201 240 134 149 172 173 177 185 179 166 162 157 165 165 154 161 184 205 218 220 194 197 218 190 188 187 244 224 169 150 212 191 179 162 169 252 209 183 160 152 163 174 217 239 209 216 235 238 284 278 220 258 270 264 247 221 132 93 61 147 167 166 166 170 172 176 181 184
229 225 226 227 226 221 215 217 213 202 196 185 174 169 167 199 208 198 204 207 198 41 127 146 166 172 182 195 170 154 159 152 161 162 150 159 189 213 215 222 218 224 83 157 190 178 215 262 184 173 177 182 191 201 184 148 171 196 178 171 188 178 192 220 202 227 242 240 298 272 187 192 210 258 264 87 89 86 80 131 155 161 164 168 170 174 180 184
234 230 229 227 224 217 212 215 212 200 187 180 174 175 186 202 214 194 201 204 186 146 144 154 156 168 195 207 149 160 172 144 161 169 176 181 199 205 198 206 207 203 177 191 205 171 210 261 183 164 157 168 190 211 173 128 160 209 174 188 215 194 180 208 192 178 137 352 283 229 235 222 196 144 91 95 87 81 92 130 141 148 158 164 168 174 179 183
239 234 232 228 220 213 211 215 212 200 186 178 175 203 204 209 204 174 181 183 184 163 133 155 168 174 193 183 158 187 180 103 163 176 199 204 222 218 205 197 191 195 192 186 185 162 195 263 100 119 134 166 191 214 179 154 175 188 173 198 206 141 168 210 266 76 103 276 254 177 245 281 248 275 154 130 108 105 145 145 140 148 159 164 171 177 180 183
237 234 234 229 223 219 213 213 213 201 187 183 193 205 208 221 204 168 162 180 190 179 151 178 188 177 191 180 174 191 169 115 170 182 181 189 231 219 208 198 182 194 206 198 210 199 175 243 279 162 154 189 344 338 171 99 89 138 183 192 117 51 29 177 255 352 167 250 256 177 208 225 198 234 174 149 163 171 197 179 150 155 164 170 178 181 182 184
232 233 236 234 230 223 214 212 211 197 183 186 217 212 209 218 207 194 161 177 191 186 189 216 195 173 193 196 175 175 174 160 173 184 177 176 225 198 191 200 184 192 206 204 214 254 178 214 269 297 92 23 4 46 138 18 43 107 185 195 128 118 226 159 189 233 198 231 271 206 206 204 202 207 170 183 198 185 185 188 171 170 175 178 181 182 184 185
227 230 237 237 228 220 217 214 202 187 175 186 216 217 221 210 203 203 198 192 197 191 199 212 202 196 203 206 193 168 177 181 169 178 191 185 215 188 179 190 190 193 199 196 203 235 190 200 252 315 15 116 39 223 182 190 357 40 357 256 147 157 194 176 181 201 187 221 269 237 211 220 217 196 180 195 200 181 176 187 189 184 182 182 182 183 185 186
213 221 245 237 225 217 214 207 193 180 173 195 206 208 210 202 201 205 207 209 220 196 201 201 201 209 207 211 217 182 182 191 175 183 204 183 195 201 181 183 189 190 191 192 200 207 180 206 221 301 340 142 164 211 193 186 189 185 182 199 196 173 140 165 218 203 173 206 243 246 254 249 238 205 185 190 189 179 179 184 188 185 184 186 187 186 187 189
203 208 242 230 227 218 204 194 186 182 176 197 215 217 209 215 202 203 209 215 224 262 180 202 206 212 212 212 217 187 178 198 189 189 207 193 200 219 185 184 185 175 176 188 203 196 180 202 188 167 223 207 211 216 202 196 196 194 192 192 192 183 160 176 227 211 184 196 200 213 259 256 239 333 9 165 171 179 181 179 176 180 184 188 192 192 191 193
209 209 228 220 222 207 194 188 188 187 179 196 208 206 204 232 211 198 207 214 223 241 49 11 210 194 226 214 203 157 167 196 203 197 211 210 206 212 190 187 182 169 159 178 207 194 144 151 188 184 194 213 241 179 140 201 234 237 229 203 185 188 188 195 214 199 183 211 177 153 275 268 239 318 4 56 90 144 166 170 168 176 184 187 192 195 195 195
228 246 226 215 215 198 186 187 203 188 204 212 200 197 201 215 222 196 202 205 212 222 212 222 200 200 225 184 113 131 173 192 211 207 215 222 213 268 0 181 174 168 163 175 206 174 101 124 184 186 5 8 336 56 60 46 50 292 258 206 190 208 203 200 214 174 181 206 168 147 262 260 261 326 0 42 76 115 149 164 167 173 182 187 191 194 195 196
227 242 208 198 204 194 184 179 183 192 215 189 196 216 206 216 223 203 200 196 196 205 214 219 210 209 232 162 132 184 183 191 234 225 220 228 241 356 350 231 172 169 170 178 177 163 158 170 157 152 287 247 165 254 284 267 191 217 225 205 212 212 191 186 81 81 227 202 168 185 238 244 280 312 3 68 99 111 138 159 167 173 180 185 189 192 195 196
214 233 208 194 193 189 190 196 183 187 199 179 196 212 202 220 224 212 212 203 197 199 206 223 220 208 207 101 134 216 203 199 241 261 327 280 254 7 330 241 269 154 136 30 136 166 169 173 163 179 219 222 218 231 219 195 190 219 209 202 213 208 192 191 180 203 232 188 164 204 232 245 280 228 170 183 151 131 143 155 162 172 178 183 189 193 196 198
192 209 213 203 201 200 203 199 185 178 188 185 198 208 203 218 219 208 213 217 213 209 205 213 205 195 191 178 201 228 223 213 211 201 211 211 203 11 346 219 237 299 22 38 99 144 132 213 197 199 218 221 214 235 210 137 156 206 209 199 205 207 197 188 198 216 213 159 195 218 195 171 233 207 185 203 183 165 177 166 156 163 174 183 189 193 196 198
181 197 183 188 219 230 230 201 186 185 187 184 182 188 201 215 218 197 203 214 216 210 211 216 191 194 199 198 211 229 223 212 206 214 217 196 143 12 168 173 214 226 208 205 203 114 103 229 219 215 229 221 169 213 263 144 182 206 206 201 205 205 194 193 212 210 154 157 232 214 160 182 218 202 199 206 193 187 182 175 171 170 176 182 186 190 194 198
191 219 197 185 194 220 234 216 197 198 190 182 186 189 192 207 215 197 199 213 214 202 203 218 211 212 210 202 209 224 217 213 215 223 223 193 135 146 180 189 216 201 169 166 205 128 131 231 228 219 236 236 169 215 316 40 220 220 207 204 204 201 198 203 216 208 167 197 231 172 167 203 208 191 200 194 194 198 181 177 181 178 179 182 183 189 196 201
204 247 216 197 191 182 209 213 205 211 198 180 188 203 193 202 212 206 196 203 208 201 200 213 221 219 214 209 208 210 208 209 216 222 215 188 169 170 180 214 210 185 155 153 192 163 161 235 224 199 235 240 216 216 0 29 313 284 232 214 204 203 205 208 218 215 199 221 233 143 187 226 197 181 200 194 196 193 169 169 175 175 180 184 188 196 201 205
209 229 207 192 209 187 181 189 184 215 217 191 192 203 199 204 210 208 196 185 192 199 199 215 228 219 208 210 211 218 219 212 218 223 189 173 194 192 196 203 157 161 174 168 187 182 186 225 191 154 229 237 207 181 119 56 335 299 277 249 218 207 206 213 225 220 214 238 243 224 274 267 206 165 163 160 170 158 147 162 171 178 187 189 193 201 206 211
217 219 211 190 204 185 164 171 171 190 226 217 204 203 204 210 209 204 202 200 204 204 196 213 227 220 203 209 212 222 227 218 224 231 182 182 201 196 193 185 143 150 185 181 173 172 183 217 103 130 218 231 200 174 159 85 41 295 269 255 228 205 203 215 225 211 207 227 229 228 253 249 185 143 122 129 147 149 159 173 177 187 195 196 203 210 215 218
228 228 221 207 208 189 173 150 169 191 210 204 202 210 206 206 194 180 201 212 213 220 214 218 228 222 204 212 216 226 233 227 235 243 207 201 208 188 181 181 161 159 171 174 172 166 176 189 168 178 213 229 200 165 149 113 79 259 257 237 202 198 213 215 218 211 209 212 210 223 234 208 152 146 146 156 167 169 178 184 190 199 202 208 218 221 220 217